Time,TemperatureF,DewpointF,PressureIn,WindDirection,WindDirectionDegrees,WindSpeedMPH,WindSpeedGustMPH,Humidity,HourlyPrecipIn,Conditions,Clouds,dailyrainin,SoftwareType,DateUTC
2013-05-28 00:03:00,66.0,-99.9,30.20,SE,136,1.0,3.0,-999,-99.99,,,-99.99,,2013-05-28 04:03:00,
2013-05-28 00:13:00,-999.0,-99.9,30.20,SE,139,3.0,3.0,-999,-99.99,,,-99.99,,2013-05-28 04:13:00,
2013-05-28 00:23:00,66.0,-99.9,30.20,North,-999,-999.0,-999.0,-999,-99.99,,,-99.99,,2013-05-28 04:23:00,
2013-05-28 00:33:00,66.0,-99.9,30.20,ESE,118,1.0,2.0,-999,-99.99,,,-99.99,,2013-05-28 04:33:00,
2013-05-28 00:43:00,66.0,-99.9,30.20,North,-999,-999.0,-999.0,-999,-99.99,,,-99.99,,2013-05-28 04:43:00,
2013-05-28 00:53:00,65.0,-99.9,30.20,North,-999,-999.0,-999.0,-999,-99.99,,,-99.99,,2013-05-28 04:53:00,
2013-05-28 01:02:00,65.0,-99.9,30.20,SSW,198,1.0,1.0,-999,-99.99,,,-99.99,,2013-05-28 05:02:00,
2013-05-28 01:12:00,65.0,-99.9,30.19,South,181,3.0,3.0,-999,-99.99,,,-99.99,,2013-05-28 05:12:00,
2013-05-28 01:22:00,65.0,-99.9,30.19,North,-999,-999.0,-999.0,-999,-99.99,,,-99.99,,2013-05-28 05:22:00,
2013-05-28 01:33:00,65.0,-99.9,30.19,SSE,153,0.0,2.0,-999,-99.99,,,-99.99,,2013-05-28 05:33:00,
2013-05-28 01:43:00,65.0,-99.9,30.19,North,-999,-999.0,-999.0,-999,-99.99,,,-99.99,,2013-05-28 05:43:00,
2013-05-28 01:52:00,-999.0,-99.9,30.19,South,171,1.0,1.0,-999,-99.99,,,-99.99,,2013-05-28 05:52:00,
2013-05-28 02:02:00,65.0,-99.9,30.19,SSE,155,2.0,2.0,-999,-99.99,,,-99.99,,2013-05-28 06:02:00,
2013-05-28 02:12:00,65.0,-99.9,30.18,South,181,2.0,3.0,-999,-99.99,,,-99.99,,2013-05-28 06:12:00,
2013-05-28 02:22:00,65.0,-99.9,30.18,North,-999,-999.0,-999.0,-999,-99.99,,,-99.99,,2013-05-28 06:22:00,
2013-05-28 02:32:00,65.0,-99.9,30.18,South,182,1.0,3.0,-999,-99.99,,,-99.99,,2013-05-28 06:32:00,
2013-05-28 02:42:00,65.0,-99.9,30.18,North,-999,-999.0,-999.0,-999,-99.99,,,-99.99,,2013-05-28 06:42:00,
2013-05-28 02:52:00,65.0,-99.9,-100.00,North,-999,-999.0,-999.0,-999,-99.99,,,-99.99,,2013-05-28 06:52:00,
2013-05-28 03:02:00,65.0,-99.9,30.18,WSW,250,2.0,2.0,-999,-99.99,,,-99.99,,2013-05-28 07:02:00,
2013-05-28 03:11:00,-999.0,-99.9,30.17,South,187,2.0,2.0,-999,-99.99,,,-99.99,,2013-05-28 07:11:00,
2013-05-28 03:22:00,-999.0,-99.9,30.17,SE,139,1.0,1.0,-999,-99.99,,,-99.99,,2013-05-28 07:22:00,
2013-05-28 03:32:00,65.0,-99.9,30.16,SE,135,1.0,1.0,-999,-99.99,,,-99.99,,2013-05-28 07:32:00,
2013-05-28 03:42:00,-999.0,-99.9,30.16,SE,125,1.0,2.0,-999,-99.99,,,-99.99,,2013-05-28 07:42:00,
2013-05-28 03:52:00,-999.0,-99.9,30.15,SE,142,1.0,2.0,-999,-99.99,,,-99.99,,2013-05-28 07:52:00,
2013-05-28 04:02:00,65.0,-99.9,30.15,ESE,118,1.0,2.0,-999,-99.99,,,-99.99,,2013-05-28 08:02:00,
2013-05-28 04:12:00,65.0,-99.9,30.15,North,-999,-999.0,-999.0,-999,-99.99,,,-99.99,,2013-05-28 08:12:00,
2013-05-28 04:22:00,64.0,-99.9,30.15,North,-999,-999.0,-999.0,-999,-99.99,,,-99.99,,2013-05-28 08:22:00,
2013-05-28 04:32:00,64.0,-99.9,30.16,North,-999,0.0,-999.0,-999,-99.99,,,-99.99,,2013-05-28 08:32:00,
2013-05-28 04:42:00,-999.0,-99.9,30.15,ENE,71,1.0,2.0,-999,-99.99,,,-99.99,,2013-05-28 08:42:00,
2013-05-28 04:52:00,-999.0,-99.9,30.15,East,101,1.0,2.0,-999,-99.99,,,-99.99,,2013-05-28 08:52:00,
2013-05-28 05:01:00,64.0,-99.9,30.15,East,88,1.0,2.0,-999,-99.99,,,-99.99,,2013-05-28 09:01:00,
2013-05-28 05:11:00,64.0,-99.9,30.15,WNW,302,1.0,1.0,-999,-99.99,,,-99.99,,2013-05-28 09:11:00,
2013-05-28 05:22:00,63.0,-99.9,30.15,North,-999,-999.0,-999.0,-999,-99.99,,,-99.99,,2013-05-28 09:22:00,
2013-05-28 05:33:00,63.0,-99.9,30.15,NE,41,1.0,2.0,-999,-99.99,,,-99.99,,2013-05-28 09:33:00,
2013-05-28 05:43:00,63.0,-99.9,30.15,North,-999,-999.0,-999.0,-999,-99.99,,,-99.99,,2013-05-28 09:43:00,
2013-05-28 05:54:00,-999.0,-99.9,30.15,ENE,73,1.0,3.0,-999,-99.99,,,-99.99,,2013-05-28 09:54:00,
2013-05-28 06:03:00,63.0,-99.9,30.15,ENE,68,1.0,2.0,-999,-99.99,,,-99.99,,2013-05-28 10:03:00,
2013-05-28 06:12:00,63.0,-99.9,30.15,ENE,58,1.0,2.0,-999,-99.99,,,-99.99,,2013-05-28 10:12:00,
2013-05-28 06:23:00,63.0,-99.9,30.15,North,-999,-999.0,-999.0,-999,-99.99,,,-99.99,,2013-05-28 10:23:00,
2013-05-28 06:32:00,63.0,-99.9,30.15,East,97,2.0,3.0,-999,-99.99,,,-99.99,,2013-05-28 10:32:00,
2013-05-28 06:43:00,-999.0,-99.9,30.15,East,95,3.0,5.0,-999,-99.99,,,-99.99,,2013-05-28 10:43:00,
2013-05-28 06:53:00,63.0,-99.9,30.15,North,-999,-999.0,-999.0,-999,-99.99,,,-99.99,,2013-05-28 10:53:00,
2013-05-28 07:03:00,63.0,-99.9,30.16,ESE,104,2.0,3.0,-999,-99.99,,,-99.99,,2013-05-28 11:03:00,
2013-05-28 07:12:00,-999.0,-99.9,30.16,SE,135,3.0,4.0,-999,-99.99,,,-99.99,,2013-05-28 11:12:00,
2013-05-28 07:23:00,63.0,-99.9,30.16,North,-999,-999.0,-999.0,-999,-99.99,,,-99.99,,2013-05-28 11:23:00,
2013-05-28 07:32:00,63.0,-99.9,30.16,SE,142,4.0,5.0,-999,-99.99,,,-99.99,,2013-05-28 11:32:00,
2013-05-28 07:42:00,-999.0,-99.9,30.16,SSE,163,4.0,5.0,-999,-99.99,,,-99.99,,2013-05-28 11:42:00,
2013-05-28 07:52:00,64.0,-99.9,30.16,North,-999,-999.0,-999.0,-999,-99.99,,,-99.99,,2013-05-28 11:52:00,
2013-05-28 08:02:00,64.0,-99.9,30.16,SSW,193,6.0,10.0,-999,-99.99,,,-99.99,,2013-05-28 12:02:00,
2013-05-28 08:11:00,-999.0,-99.9,30.16,SSW,192,9.0,10.0,-999,-99.99,,,-99.99,,2013-05-28 12:11:00,
2013-05-28 08:22:00,-999.0,-99.9,30.16,South,184,10.0,13.0,-999,-99.99,,,-99.99,,2013-05-28 12:22:00,
2013-05-28 08:32:00,64.0,-99.9,30.16,SSW,192,10.0,14.0,-999,-99.99,,,-99.99,,2013-05-28 12:32:00,
2013-05-28 08:42:00,-999.0,-99.9,30.15,South,182,10.0,12.0,-999,-99.99,,,-99.99,,2013-05-28 12:42:00,
2013-05-28 08:52:00,-999.0,-99.9,30.15,SSW,198,8.0,13.0,-999,-99.99,,,-99.99,,2013-05-28 12:52:00,
2013-05-28 09:01:00,64.0,-99.9,30.15,South,185,9.0,13.0,-999,-99.99,,,-99.99,,2013-05-28 13:01:00,
2013-05-28 09:11:00,64.0,-99.9,30.15,North,-999,-999.0,-999.0,-999,-99.99,,,-99.99,,2013-05-28 13:11:00,
2013-05-28 09:22:00,64.0,-99.9,30.16,North,-999,-999.0,-999.0,-999,-99.99,,,-99.99,,2013-05-28 13:22:00,
2013-05-28 09:32:00,64.0,-99.9,30.16,SSW,203,6.0,8.0,-999,-99.99,,,-99.99,,2013-05-28 13:32:00,
2013-05-28 09:42:00,64.0,-99.9,30.17,North,-999,-999.0,-999.0,-999,-99.99,,,-99.99,,2013-05-28 13:42:00,
2013-05-28 09:52:00,-999.0,-99.9,30.17,SSW,204,8.0,10.0,-999,-99.99,,,-99.99,,2013-05-28 13:52:00,
2013-05-28 10:02:00,64.0,-99.9,30.17,SSW,194,6.0,10.0,-999,-99.99,,,-99.99,,2013-05-28 14:02:00,
2013-05-28 10:12:00,-999.0,-99.9,30.16,South,191,5.0,8.0,-999,-99.99,,,-99.99,,2013-05-28 14:12:00,
2013-05-28 10:22:00,65.0,-99.9,30.15,North,-999,-999.0,-999.0,-999,-99.99,,,-99.99,,2013-05-28 14:22:00,
2013-05-28 10:32:00,64.0,-99.9,30.15,SSW,193,9.0,11.0,-999,-99.99,,,-99.99,,2013-05-28 14:32:00,
2013-05-28 10:42:00,65.0,-99.9,30.16,SSW,199,6.0,9.0,-999,-99.99,,,-99.99,,2013-05-28 14:42:00,
2013-05-28 10:52:00,66.0,-99.9,30.16,North,-999,-999.0,-999.0,-999,-99.99,,,-99.99,,2013-05-28 14:52:00,
2013-05-28 11:01:00,66.0,-99.9,30.17,SW,225,4.0,5.0,-999,-99.99,,,-99.99,,2013-05-28 15:01:00,
2013-05-28 11:11:00,67.0,-99.9,30.17,North,-999,-999.0,-999.0,-999,-99.99,,,-99.99,,2013-05-28 15:11:00,
2013-05-28 11:22:00,-999.0,-99.9,30.17,SSE,156,4.0,6.0,-999,-99.99,,,-99.99,,2013-05-28 15:22:00,
2013-05-28 11:33:00,67.0,-99.9,30.17,SE,134,3.0,5.0,-999,-99.99,,,-99.99,,2013-05-28 15:33:00,
2013-05-28 11:43:00,67.0,-99.9,30.16,SSE,151,5.0,6.0,-999,-99.99,,,-99.99,,2013-05-28 15:43:00,
2013-05-28 11:53:00,68.0,-99.9,30.16,North,-999,-999.0,-999.0,-999,-99.99,,,-99.99,,2013-05-28 15:53:00,
2013-05-28 12:03:00,68.0,-99.9,30.16,SE,142,2.0,3.0,-999,-99.99,,,-99.99,,2013-05-28 16:03:00,
2013-05-28 12:13:00,69.0,-99.9,30.15,North,-999,-999.0,-999.0,-999,-99.99,,,-99.99,,2013-05-28 16:13:00,
2013-05-28 12:23:00,70.0,-99.9,30.15,North,-999,-999.0,-999.0,-999,-99.99,,,-99.99,,2013-05-28 16:23:00,
2013-05-28 12:33:00,71.0,-99.9,30.14,South,169,2.0,4.0,-999,-99.99,,,-99.99,,2013-05-28 16:33:00,
2013-05-28 12:42:00,-999.0,-99.9,30.14,South,171,7.0,9.0,-999,-99.99,,,-99.99,,2013-05-28 16:42:00,
2013-05-28 12:53:00,-999.0,-99.9,30.13,South,169,6.0,7.0,-999,-99.99,,,-99.99,,2013-05-28 16:53:00,
2013-05-28 13:02:00,72.0,-99.9,30.13,SSE,165,4.0,6.0,-999,-99.99,,,-99.99,,2013-05-28 17:02:00,
2013-05-28 13:12:00,73.0,-99.9,30.13,South,177,5.0,6.0,-999,-99.99,,,-99.99,,2013-05-28 17:12:00,
2013-05-28 13:22:00,-999.0,-99.9,30.12,South,178,8.0,10.0,-999,-99.99,,,-99.99,,2013-05-28 17:22:00,
2013-05-28 13:32:00,73.0,-99.9,30.12,South,175,9.0,11.0,-999,-99.99,,,-99.99,,2013-05-28 17:32:00,
2013-05-28 13:42:00,-999.0,-99.9,30.11,SSE,168,11.0,12.0,-999,-99.99,,,-99.99,,2013-05-28 17:42:00,
2013-05-28 13:52:00,74.0,-99.9,30.11,North,-999,-999.0,-999.0,-999,-99.99,,,-99.99,,2013-05-28 17:52:00,
2013-05-28 14:01:00,74.0,-99.9,30.11,South,179,9.0,12.0,-999,-99.99,,,-99.99,,2013-05-28 18:01:00,
2013-05-28 14:11:00,74.0,-99.9,30.11,SSE,164,8.0,10.0,-999,-99.99,,,-99.99,,2013-05-28 18:11:00,
2013-05-28 14:22:00,75.0,-99.9,30.11,North,-999,-999.0,-999.0,-999,-99.99,,,-99.99,,2013-05-28 18:22:00,
2013-05-28 14:32:00,75.0,-99.9,30.11,South,169,11.0,12.0,-999,-99.99,,,-99.99,,2013-05-28 18:32:00,
2013-05-28 14:43:00,75.0,-99.9,30.11,SSE,167,9.0,11.0,-999,-99.99,,,-99.99,,2013-05-28 18:43:00,
2013-05-28 14:52:00,77.0,-99.9,30.11,North,-999,-999.0,-999.0,-999,-99.99,,,-99.99,,2013-05-28 18:52:00,
2013-05-28 15:01:00,76.0,-99.9,30.10,South,178,10.0,12.0,-999,-99.99,,,-99.99,,2013-05-28 19:01:00,
2013-05-28 15:11:00,-999.0,-99.9,30.10,South,175,10.0,11.0,-999,-99.99,,,-99.99,,2013-05-28 19:11:00,
2013-05-28 15:22:00,-999.0,-99.9,30.10,SSE,167,9.0,10.0,-999,-99.99,,,-99.99,,2013-05-28 19:22:00,
2013-05-28 15:32:00,78.0,-99.9,30.09,South,173,9.0,10.0,-999,-99.99,,,-99.99,,2013-05-28 19:32:00,
2013-05-28 15:42:00,-999.0,-99.9,30.09,South,181,8.0,11.0,-999,-99.99,,,-99.99,,2013-05-28 19:42:00,
2013-05-28 15:52:00,79.0,-99.9,30.09,South,179,7.0,10.0,-999,-99.99,,,-99.99,,2013-05-28 19:52:00,
2013-05-28 16:02:00,78.0,-99.9,30.09,South,180,8.0,12.0,-999,-99.99,,,-99.99,,2013-05-28 20:02:00,
2013-05-28 16:11:00,78.0,-99.9,30.08,North,-999,-999.0,-999.0,-999,-99.99,,,-99.99,,2013-05-28 20:11:00,
2013-05-28 16:22:00,80.0,-99.9,30.08,North,-999,-999.0,-999.0,-999,-99.99,,,-99.99,,2013-05-28 20:22:00,
2013-05-28 16:32:00,79.0,-99.9,30.08,South,176,8.0,11.0,-999,-99.99,,,-99.99,,2013-05-28 20:32:00,
2013-05-28 16:42:00,79.0,-99.9,30.08,North,-999,-999.0,-999.0,-999,-99.99,,,-99.99,,2013-05-28 20:42:00,
2013-05-28 16:52:00,79.0,-99.9,30.08,North,-999,-999.0,-999.0,-999,-99.99,,,-99.99,,2013-05-28 20:52:00,
2013-05-28 17:02:00,80.0,-99.9,30.07,South,172,8.0,9.0,-999,-99.99,,,-99.99,,2013-05-28 21:02:00,
2013-05-28 17:11:00,80.0,-99.9,30.07,North,-999,-999.0,-999.0,-999,-99.99,,,-99.99,,2013-05-28 21:11:00,
2013-05-28 17:22:00,82.0,-99.9,30.07,SSW,192,7.0,9.0,-999,-99.99,,,-99.99,,2013-05-28 21:22:00,
2013-05-28 17:33:00,81.0,-99.9,30.07,South,174,5.0,8.0,-999,-99.99,,,-99.99,,2013-05-28 21:33:00,
2013-05-28 17:43:00,81.0,-99.9,30.07,North,-999,-999.0,-999.0,-999,-99.99,,,-99.99,,2013-05-28 21:43:00,
2013-05-28 17:53:00,-999.0,-99.9,30.06,ENE,69,3.0,4.0,-999,-99.99,,,-99.99,,2013-05-28 21:53:00,
2013-05-28 18:02:00,82.0,-99.9,30.06,East,79,3.0,5.0,-999,-99.99,,,-99.99,,2013-05-28 22:02:00,
2013-05-28 18:13:00,81.0,-99.9,30.06,ENE,67,1.0,4.0,-999,-99.99,,,-99.99,,2013-05-28 22:13:00,
2013-05-28 18:22:00,80.0,-99.9,30.06,SSE,152,4.0,6.0,-999,-99.99,,,-99.99,,2013-05-28 22:22:00,
2013-05-28 18:33:00,80.0,-99.9,30.06,SSE,156,4.0,5.0,-999,-99.99,,,-99.99,,2013-05-28 22:33:00,
2013-05-28 18:42:00,80.0,-99.9,30.05,North,-999,-999.0,-999.0,-999,-99.99,,,-99.99,,2013-05-28 22:42:00,
2013-05-28 18:52:00,79.0,-99.9,30.06,North,-999,-999.0,-999.0,-999,-99.99,,,-99.99,,2013-05-28 22:52:00,
2013-05-28 19:02:00,79.0,-99.9,30.06,NNE,16,4.0,6.0,-999,-99.99,,,-99.99,,2013-05-28 23:02:00,
2013-05-28 19:11:00,-999.0,-99.9,30.06,NNW,330,6.0,7.0,-999,-99.99,,,-99.99,,2013-05-28 23:11:00,
2013-05-28 19:22:00,73.0,-99.9,30.10,North,-999,-999.0,-999.0,-999,-99.99,,,-99.99,,2013-05-28 23:22:00,
2013-05-28 19:32:00,71.0,-99.9,30.09,South,175,6.0,14.0,-999,-99.99,,,-99.99,,2013-05-28 23:32:00,
2013-05-28 19:42:00,-999.0,-99.9,30.08,SE,137,17.0,23.0,-999,-99.99,,,-99.99,,2013-05-28 23:42:00,
2013-05-28 19:52:00,70.0,-99.9,30.08,North,-999,-999.0,-999.0,-999,-99.99,,,-99.99,,2013-05-28 23:52:00,
2013-05-28 20:02:00,71.0,-99.9,30.07,ESE,111,4.0,14.0,-999,-99.99,,,-99.99,,2013-05-29 00:02:00,
2013-05-28 20:11:00,70.0,-99.9,30.06,SE,128,5.0,9.0,-999,-99.99,,,-99.99,,2013-05-29 00:11:00,
2013-05-28 20:22:00,70.0,-99.9,30.07,North,-999,-999.0,-999.0,-999,-99.99,,,-99.99,,2013-05-29 00:22:00,
2013-05-28 20:32:00,71.0,-99.9,30.07,ESE,116,2.0,7.0,-999,-99.99,,,-99.99,,2013-05-29 00:32:00,
2013-05-28 20:42:00,70.0,-99.9,30.07,North,-999,-999.0,-999.0,-999,-99.99,,,-99.99,,2013-05-29 00:42:00,
2013-05-28 20:52:00,-999.0,-99.9,30.07,WSW,242,1.0,2.0,-999,-99.99,,,-99.99,,2013-05-29 00:52:00,
2013-05-28 21:01:00,70.0,-99.9,30.06,ESE,115,2.0,3.0,-999,-99.99,,,-99.99,,2013-05-29 01:01:00,
2013-05-28 21:11:00,70.0,-99.9,30.07,SW,228,3.0,5.0,-999,-99.99,,,-99.99,,2013-05-29 01:11:00,
2013-05-28 21:22:00,-999.0,-99.9,30.07,South,177,5.0,8.0,-999,-99.99,,,-99.99,,2013-05-29 01:22:00,
2013-05-28 21:32:00,70.0,-99.9,30.07,SSW,210,4.0,5.0,-999,-99.99,,,-99.99,,2013-05-29 01:32:00,
2013-05-28 21:42:00,69.0,-99.9,30.07,North,-999,-999.0,-999.0,-999,-99.99,,,-99.99,,2013-05-29 01:42:00,
2013-05-28 21:52:00,69.0,-99.9,30.07,North,-999,-999.0,-999.0,-999,-99.99,,,-99.99,,2013-05-29 01:52:00,
2013-05-28 22:02:00,69.0,-99.9,30.08,SE,144,3.0,5.0,-999,-99.99,,,-99.99,,2013-05-29 02:02:00,
2013-05-28 22:12:00,69.0,-99.9,30.08,North,-999,-999.0,-999.0,-999,-99.99,,,-99.99,,2013-05-29 02:12:00,
2013-05-28 22:22:00,70.0,-99.9,30.08,North,-999,-999.0,-999.0,-999,-99.99,,,-99.99,,2013-05-29 02:22:00,
2013-05-28 22:32:00,70.0,-99.9,30.08,SSE,163,1.0,3.0,-999,-99.99,,,-99.99,,2013-05-29 02:32:00,
2013-05-28 22:42:00,69.0,-99.9,30.08,North,-999,-999.0,-999.0,-999,-99.99,,,-99.99,,2013-05-29 02:42:00,
2013-05-28 22:52:00,-999.0,-99.9,30.08,SSE,155,3.0,4.0,-999,-99.99,,,-99.99,,2013-05-29 02:52:00,
2013-05-28 23:02:00,69.0,-99.9,30.08,SSE,151,2.0,3.0,-999,-99.99,,,-99.99,,2013-05-29 03:02:00,
2013-05-28 23:12:00,69.0,-99.9,30.08,North,-999,-999.0,-999.0,-999,-99.99,,,-99.99,,2013-05-29 03:12:00,
2013-05-28 23:22:00,69.0,-99.9,30.08,North,-999,-999.0,-999.0,-999,-99.99,,,-99.99,,2013-05-29 03:22:00,
2013-05-28 23:33:00,69.0,-99.9,30.08,South,189,1.0,2.0,-999,-99.99,,,-99.99,,2013-05-29 03:33:00,
2013-05-28 23:43:00,69.0,-99.9,30.08,North,-999,-999.0,-999.0,-999,-99.99,,,-99.99,,2013-05-29 03:43:00,
2013-05-28 23:53:00,69.0,-99.9,30.08,North,-999,-999.0,-999.0,-999,-99.99,,,-99.99,,2013-05-29 03:53:00,